Météo par heure à Juárez

Ce jour, 20 Juin, Dimanche

Heure Température Précipitation Vent Pression Humidité
00:00 +19°C° 0 mm 2 m/s 614 mmHg 71%
01:00 +19°C° 0 mm 2 m/s 613 mmHg 70%
02:00 +20°C° 0 mm 1 m/s 613 mmHg 70%
03:00 +20°C° 0.1 mm 1 m/s 613 mmHg 70%
04:00 +20°C° 0.1 mm 1 m/s 613 mmHg 71%
05:00 +20°C° 0.1 mm 1 m/s 613 mmHg 71%
06:00 +21°C° 0.1 mm 1 m/s 614 mmHg 69%
07:00 +21°C° 0.1 mm 1 m/s 614 mmHg 67%
08:00 +22°C° 0.1 mm 1 m/s 615 mmHg 64%
09:00 +23°C° 0 mm 1 m/s 615 mmHg 58%
10:00 +24°C° 0 mm 2 m/s 615 mmHg 52%
11:00 +26°C° 0 mm 2 m/s 615 mmHg 46%
12:00 +26°C° 0 mm 2 m/s 615 mmHg 43%
13:00 +27°C° 0 mm 1 m/s 615 mmHg 40%
14:00 +28°C° 0 mm 1 m/s 614 mmHg 37%
15:00 +28°C° 0 mm 1 m/s 614 mmHg 36%
16:00 +28°C° 0 mm 1 m/s 614 mmHg 35%
17:00 +29°C° 0 mm 1 m/s 614 mmHg 34%
18:00 +28°C° 0 mm 1 m/s 614 mmHg 37%
19:00 +27°C° 0 mm 2 m/s 614 mmHg 40%
20:00 +26°C° 0 mm 2 m/s 614 mmHg 43%
21:00 +25°C° 0 mm 3 m/s 614 mmHg 48%
22:00 +24°C° 0 mm 3 m/s 614 mmHg 53%
23:00 +22°C° 0 mm 4 m/s 614 mmHg 59%

Demain, 21 Juin, Lundi

Heure Température Précipitation Vent Pression Humidité
00:00 +21°C° 0 mm 4 m/s 614 mmHg 61%
01:00 +21°C° 0 mm 4 m/s 613 mmHg 64%
02:00 +20°C° 0 mm 4 m/s 613 mmHg 67%
03:00 +20°C° 0 mm 3 m/s 613 mmHg 69%
04:00 +19°C° 0 mm 3 m/s 613 mmHg 70%
05:00 +19°C° 0 mm 3 m/s 613 mmHg 72%
06:00 +20°C° 0 mm 3 m/s 614 mmHg 66%
07:00 +23°C° 0 mm 2 m/s 615 mmHg 60%
08:00 +24°C° 0 mm 2 m/s 616 mmHg 54%
09:00 +26°C° 0 mm 2 m/s 616 mmHg 46%
10:00 +28°C° 0 mm 2 m/s 616 mmHg 38%
11:00 +30°C° 0 mm 2 m/s 617 mmHg 30%
12:00 +31°C° 0 mm 2 m/s 616 mmHg 27%
13:00 +33°C° 0 mm 3 m/s 616 mmHg 24%
14:00 +34°C° 0 mm 3 m/s 616 mmHg 20%
15:00 +34°C° 0 mm 4 m/s 616 mmHg 20%
16:00 +34°C° 0 mm 4 m/s 615 mmHg 19%
17:00 +34°C° 0 mm 5 m/s 615 mmHg 19%
18:00 +33°C° 0 mm 4 m/s 615 mmHg 21%
19:00 +32°C° 0 mm 4 m/s 614 mmHg 24%
20:00 +29°C° 0 mm 3 m/s 614 mmHg 27%
21:00 +29°C° 0 mm 3 m/s 614 mmHg 28%
22:00 +28°C° 0 mm 3 m/s 614 mmHg 29%
23:00 +28°C° 0 mm 2 m/s 614 mmHg 30%

Après-demain, 22 Juin, Mardi

Heure Température Précipitation Vent Pression Humidité
00:00 +27°C° 0 mm 2 m/s 614 mmHg 33%
01:00 +26°C° 0 mm 2 m/s 614 mmHg 37%
02:00 +25°C° 0 mm 2 m/s 613 mmHg 41%
03:00 +25°C° 0.1 mm 2 m/s 613 mmHg 43%
04:00 +24°C° 0.1 mm 2 m/s 614 mmHg 46%
05:00 +24°C° 0.1 mm 2 m/s 614 mmHg 48%
06:00 +24°C° 0.1 mm 2 m/s 614 mmHg 53%
07:00 +24°C° 0.1 mm 3 m/s 615 mmHg 57%
08:00 +22°C° 0.1 mm 4 m/s 615 mmHg 62%
09:00 +25°C° 0.1 mm 3 m/s 616 mmHg 54%
10:00 +27°C° 0.1 mm 2 m/s 616 mmHg 46%
11:00 +29°C° 0.1 mm 2 m/s 616 mmHg 39%
12:00 +30°C° 0 mm 3 m/s 616 mmHg 35%
13:00 +32°C° 0 mm 5 m/s 616 mmHg 31%
14:00 +33°C° 0 mm 6 m/s 615 mmHg 27%
15:00 +32°C° 0 mm 7 m/s 615 mmHg 30%
16:00 +31°C° 0 mm 8 m/s 614 mmHg 34%
17:00 +29°C° 0 mm 9 m/s 614 mmHg 37%
18:00 +27°C° 0 mm 7 m/s 614 mmHg 41%
19:00 +26°C° 0 mm 5 m/s 614 mmHg 45%
20:00 +25°C° 0 mm 3 m/s 614 mmHg 49%
21:00 +25°C° 0.1 mm 2 m/s 615 mmHg 50%
22:00 +24°C° 0.1 mm 2 m/s 615 mmHg 52%
23:00 +24°C° 0.1 mm 1 m/s 615 mmHg 53%

23 Juin, Mercredi

Heure Température Précipitation Vent Pression Humidité
00:00 +24°C° 0 mm 1 m/s 615 mmHg 54%
01:00 +24°C° 0 mm 1 m/s 614 mmHg 55%
02:00 +24°C° 0 mm 1 m/s 614 mmHg 56%
03:00 +23°C° 0 mm 1 m/s 614 mmHg 59%
04:00 +22°C° 0 mm 1 m/s 614 mmHg 62%
05:00 +22°C° 0 mm 1 m/s 614 mmHg 65%
06:00 +23°C° 0 mm 1 m/s 615 mmHg 61%
07:00 +24°C° 0 mm 1 m/s 615 mmHg 57%
08:00 +25°C° 0 mm 2 m/s 616 mmHg 52%
09:00 +27°C° 0 mm 2 m/s 616 mmHg 46%
10:00 +28°C° 0 mm 3 m/s 616 mmHg 39%
11:00 +30°C° 0 mm 4 m/s 617 mmHg 33%
12:00 +32°C° 0 mm 4 m/s 616 mmHg 29%
13:00 +33°C° 0 mm 5 m/s 616 mmHg 26%
14:00 +34°C° 0 mm 6 m/s 616 mmHg 23%
15:00 +34°C° 0 mm 6 m/s 616 mmHg 23%
16:00 +34°C° 0 mm 7 m/s 615 mmHg 23%
17:00 +33°C° 0 mm 8 m/s 615 mmHg 23%
18:00 +32°C° 0 mm 7 m/s 615 mmHg 28%
19:00 +30°C° 0 mm 7 m/s 615 mmHg 32%
20:00 +28°C° 0 mm 6 m/s 616 mmHg 37%
21:00 +28°C° 0 mm 5 m/s 616 mmHg 39%
22:00 +28°C° 0 mm 5 m/s 616 mmHg 41%
23:00 +27°C° 0 mm 4 m/s 616 mmHg 43%

24 Juin, Jeudi

Heure Température Précipitation Vent Pression Humidité
00:00 +26°C° 0 mm 3 m/s 616 mmHg 45%
01:00 +26°C° 0 mm 3 m/s 615 mmHg 47%
02:00 +25°C° 0 mm 2 m/s 615 mmHg 49%
03:00 +24°C° 0 mm 2 m/s 615 mmHg 52%
04:00 +24°C° 0 mm 2 m/s 615 mmHg 54%
05:00 +23°C° 0 mm 2 m/s 615 mmHg 57%
06:00 +24°C° 0 mm 2 m/s 616 mmHg 52%
07:00 +25°C° 0 mm 2 m/s 616 mmHg 47%
08:00 +27°C° 0 mm 2 m/s 617 mmHg 43%
09:00 +28°C° 0 mm 3 m/s 617 mmHg 38%
10:00 +30°C° 0 mm 4 m/s 617 mmHg 33%
11:00 +32°C° 0 mm 5 m/s 617 mmHg 29%
12:00 +33°C° 0 mm 6 m/s 617 mmHg 27%
13:00 +34°C° 0 mm 6 m/s 617 mmHg 24%
14:00 +34°C° 0 mm 7 m/s 617 mmHg 22%
15:00 +34°C° 0 mm 7 m/s 616 mmHg 22%
16:00 +34°C° 0 mm 7 m/s 616 mmHg 21%
17:00 +34°C° 0 mm 7 m/s 616 mmHg 21%
18:00 +32°C° 0 mm 6 m/s 615 mmHg 25%
19:00 +30°C° 0 mm 4 m/s 615 mmHg 29%
20:00 +28°C° 0 mm 3 m/s 615 mmHg 33%
21:00 +28°C° 0 mm 3 m/s 615 mmHg 35%
22:00 +27°C° 0 mm 3 m/s 615 mmHg 38%
23:00 +26°C° 0 mm 3 m/s 615 mmHg 41%

25 Juin, Vendredi

Heure Température Précipitation Vent Pression Humidité
00:00 +26°C° 0 mm 3 m/s 615 mmHg 43%
01:00 +25°C° 0 mm 4 m/s 615 mmHg 45%
02:00 +23°C° 0 mm 4 m/s 615 mmHg 47%
03:00 +23°C° 0 mm 4 m/s 615 mmHg 48%
04:00 +22°C° 0 mm 3 m/s 614 mmHg 50%
05:00 +21°C° 0 mm 3 m/s 614 mmHg 51%
06:00 +24°C° 0 mm 3 m/s 615 mmHg 46%
07:00 +25°C° 0 mm 3 m/s 615 mmHg 41%
08:00 +26°C° 0 mm 3 m/s 616 mmHg 36%
09:00 +28°C° 0 mm 4 m/s 616 mmHg 34%
10:00 +29°C° 0 mm 5 m/s 616 mmHg 31%
11:00 +32°C° 0 mm 5 m/s 616 mmHg 28%
12:00 +32°C° 0 mm 6 m/s 616 mmHg 26%
13:00 +33°C° 0 mm 7 m/s 616 mmHg 23%
14:00 +34°C° 0 mm 7 m/s 615 mmHg 21%
15:00 +34°C° 0 mm 7 m/s 615 mmHg 21%
16:00 +33°C° 0 mm 6 m/s 615 mmHg 20%
17:00 +33°C° 0 mm 6 m/s 614 mmHg 20%
18:00 +32°C° 0 mm 6 m/s 614 mmHg 22%
19:00 +30°C° 0 mm 6 m/s 614 mmHg 25%
20:00 +29°C° 0 mm 6 m/s 614 mmHg 27%
21:00 +29°C° 0 mm 5 m/s 615 mmHg 29%
22:00 +28°C° 0 mm 5 m/s 615 mmHg 31%
23:00 +27°C° 0 mm 4 m/s 615 mmHg 33%
Voir plus

Nous avons besoin de votre consentement

Meteoprog et ses fournisseurs de services peuvent stocker et accéder à des données personnelles telles que des cookies, des identifiants d'appareils ou d'autres technologies similaires sur votre appareil et traiter ces données pour personnaliser le contenu et les publicités, ainsi que pour fournir des fonctionnalités de médias sociaux et analyser le trafic.

  • Stocker et/ou accéder à des informations sur votre appareil

    Des cookies, des identifiants d'appareils ou d'autres informations peuvent être stockés ou accessibles sur votre appareil aux fins indiquées ci-dessus.

  • Annonces et contenus personnalisés, mesure des annonces et des contenus, connaissance de l'audience et développement de produits

    Les annonces et le contenu peuvent être personnalisés en fonction d'un profil. D'autres données peuvent être ajoutées pour mieux personnaliser les annonces et le contenu. Les performances des publicités et du contenu peuvent être mesurées. Il est possible d'obtenir des informations sur le public qui a vu les publicités et le contenu. Ces données peuvent être utilisées pour développer ou améliorer l'expérience de l'utilisateur, les systèmes et les logiciels.

En cliquant sur "J'accepte", vous autorisez l'utilisation de cookies, des identifiants d'appareils, des balises web ou d'autres technologies similaires. Vos paramètres peuvent être modifiés dans le navigateur de votre appareil.

Dans certains cas, des intérêts légitimes peuvent être invoqués plutôt qu'un consentement. Vous pouvez en savoir plus à ce sujet dans notre Politique de confidentialité et de cookies.